Location: H�kendorf
(53.3662°N, 14.6567°E)
Time: 20:18:54
(UTC+00:00)

Daily predictions for brighter satellites

Satellite Brightness Start Highest point End
(mag) Time Altitude Azimuth Time Altitude Azimuth Time Altitude Azimuth
Cosmos 2278 4.0 16:27:28 10° S 16:32:51 46° ESE 16:38:17 10° NE
CZ-4 R/B 2.6 16:30:17 10° ESE 16:33:32 24° ENE 16:36:51 10° N
X-37B 2.8 16:32:12 10° SW 16:34:31 19° S 16:36:49 10° SE
Cosmos 1821 Rocket 4.1 16:28:33 10° S 16:34:47 58° E 16:41:00 10° NNE
H-2A R/B 3.3 16:31:08 10° ESE 16:34:50 29° ENE 16:38:26 10° N
Cosmos 2278 Rocket 4.0 16:31:38 10° NNW 16:34:59 16° NNE 16:38:19 10° NE
Cosmos 2218 Rocket 4.4 16:33:11 10° SSW 16:39:29 71° WNW 16:45:54 10° N
H-2A R/B 3.8 16:39:13 10° ENE 16:40:25 11° E 16:41:38 10° ESE
YAOGAN 1 3.5 16:36:48 10° ESE 16:40:30 28° ENE 16:44:13 10° N
Cosmos 1455 Rocket 3.5 16:36:29 10° SSE 16:40:38 41° E 16:44:51 10° NNE
Cosmos 1174 3.0 16:37:53 10° SW 16:41:00 80° SE 16:44:01 10° NE
Cosmos 2150 Rocket 4.1 16:36:45 10° SSW 16:42:11 89° WNW 16:47:34 10° NNE
CZ-4C R/B 4.2 16:39:44 10° NE 16:42:21 20° E 16:44:54 10° SE
SL-16 R/B 3.2 16:42:16 10° SSE 16:46:45 25° ESE 16:51:16 10° NE
Cosmos 1934 Rocket 4.3 16:43:55 10° SSE 16:49:35 42° E 16:55:14 10° NNE
Iridium 4 Rocket 3.5 16:45:36 10° N 16:49:57 45° E 16:54:38 10° SSE
Cosmos 1408 4.1 16:47:58 10° NNE 16:50:25 17° ENE 16:51:46 14° E
ATLAS 5 CENTAUR R/B 1.6 16:47:01 10° SSW 16:50:49 50° SE 16:55:11 10° NE
NOSS 2 (A) 4.2 16:47:56 10° NW 16:50:59 77° NE 16:53:30 10° SE
Meteor 1-16 Rocket 4.3 16:45:56 10° S 16:51:45 67° E 16:57:26 10° NNE
Cosmos 371 Rocket 4.1 16:50:06 10° SSE 16:54:21 31° ESE 16:58:38 10° NE
SMAP 4.5 16:50:15 10° S 16:54:41 43° W 16:59:09 10° NNW
Cosmos 1544 Rocket 4.2 16:50:45 10° SSE 16:54:48 35° E 16:58:52 10° NNE
Feng Yun 1-1 Rocket 4.4 16:49:58 10° SE 16:55:25 55° ENE 17:01:02 10° N
Cosmos 2344 4.2 16:47:44 10° NW 16:56:09 72° NE 17:07:44 10° ESE
SJ-11-01 4.3 16:53:23 10° SSE 16:58:02 65° ENE 17:02:43 10° N
Cosmos 1300 3.3 16:54:46 10° SSE 16:58:11 32° E 17:01:38 10° NNE
Okean O Rocket 1.5 16:54:51 10° SSE 16:59:11 80° ENE 17:03:35 10° NNW
Cosmos 2322 Rocket 3.2 16:56:05 10° SSE 17:00:27 24° ESE 17:04:51 10° NE
Cosmos 1825 3.9 16:59:53 10° NNE 17:01:59 15° ENE 17:01:59 15° ENE
Cosmos 1844 4.2 16:57:43 10° NNW 17:03:14 41° NE 17:07:55 14° ESE
Cosmos 1703 3.9 17:00:11 10° NNW 17:04:05 61° W 17:07:55 10° S
Landsat 5 3.8 17:00:14 10° NNE 17:04:31 49° E 17:08:52 10° S
H-2A R/B 2.4 17:00:37 10° S 17:06:02 76° WSW 17:11:33 10° NNW
Cosmos 2123 Rocket 4.0 17:02:21 10° N 17:08:44 78° ENE 17:15:03 10° SSE
USA 215 3.3 17:02:38 12° ENE 17:08:49 86° SSE 17:15:23 10° WSW
Cosmos 389 Rocket 3.7 17:08:01 10° SW 17:11:17 43° WNW 17:14:36 10° N
Cosmos 2360 Rocket 3.4 17:07:57 10° SE 17:11:45 19° E 17:12:33 18° E
Meteor 1-11 4.1 17:06:36 10° N 17:12:13 74° ENE 17:17:51 10° SSE
Okean 1 Rocket 4.5 17:08:14 10° SW 17:12:21 40° WNW 17:16:30 10° N
Okean 1-7 Rocket 3.5 17:09:07 10° N 17:13:34 85° E 17:18:00 10° SSE
Cosmos 405 Rocket 3.7 17:10:39 10° NNW 17:14:32 53° W 17:18:26 10° S
Cosmos 1602 Rocket 3.8 17:11:08 10° N 17:15:21 46° ENE 17:19:32 10° SSE
SL-08 RB Rocket 3.7 17:12:59 10° SSE 17:17:31 66° ENE 17:22:07 10° N
COSMO-SKYMED 1 2.5 17:13:51 10° NNE 17:18:13 71° ESE 17:22:33 10° S
Okean-O 3.1 17:15:14 13° SE 17:18:50 37° ENE 17:22:57 10° N
CZ-4B R/B 3.9 17:15:44 10° S 17:21:20 61° WSW 17:26:59 10° NNW
SL-19 R/B 4.3 17:16:26 10° NNE 17:22:16 90° ESE 17:27:51 10° SSW
Lacrosse 4 Rocket 1.4 17:19:38 10° NW 17:23:57 86° NE 17:27:48 13° SE
In-Cosmos 22 Rocket 4.2 17:20:25 10° N 17:25:40 54° ENE 17:30:52 10° SSE
ARGOS 3.3 17:20:31 10° SSE 17:25:56 81° WSW 17:31:25 10° NNW
Cosmos 1125 Rocket 4.4 17:21:50 10° SW 17:26:56 49° WNW 17:32:02 10° NNE
Cosmos 2263 Rocket 3.5 17:23:04 10° NW 17:28:14 40° WSW 17:33:23 10° S
Resurs 01 Rocket 3.8 17:32:24 11° NE 17:32:24 11° NE 17:33:04 10° NNE
MetOp-A 4.3 17:26:33 10° SE 17:31:42 50° ENE 17:36:53 10° N
MOS 1-B Rocket 4.0 17:26:49 10° NNE 17:33:46 76° ESE 17:39:45 10° S
Cosmos 1980 Rocket 2.7 17:29:31 10° SW 17:35:08 61° NW 17:40:49 10° NNE
ATLAS 3B R/B 3.3 17:29:02 10° WSW 17:35:33 54° NNW 17:42:09 11° NE
NOSS 3-1 (A) 4.0 17:32:06 10° S 17:36:39 29° ESE 17:37:47 27° E
Ariane Rocket 4.4 17:38:20 20° NE 17:38:22 20° NE 17:42:00 10° N
Cosmos 1825 Rocket 4.1 17:34:33 10° N 17:38:36 36° ENE 17:39:16 34° E
CSL-04 Debris 4.3 17:34:05 13° SE 17:38:50 54° ENE 17:44:07 10° N
Cosmos 1943 Rocket 4.2 17:38:40 10° NNW 17:41:45 15° NNE 17:44:11 12° NE
CZ-2C R/B 2.7 17:36:25 10° NNE 17:42:05 89° ESE 17:47:38 10° SSW
Cosmos 2251 Rocket 3.4 17:37:39 10° NNW 17:42:57 80° ENE 17:47:22 15° SSE
Cosmos 1758 Rocket 3.5 17:40:16 10° N 17:44:32 59° ENE 17:47:08 23° SSE
Cosmos 1892 2.5 17:42:44 10° N 17:46:31 66° ENE 17:48:05 32° SSE
Cosmos 1953 4.1 17:45:07 10° SW 17:48:49 34° WNW 17:52:34 10° N
Cosmos 1953 Rocket 4.4 17:46:15 10° N 17:49:59 33° ENE 17:49:59 33° ENE
Cosmos 1626 Rocket 4.0 17:46:49 10° NNW 17:51:06 61° W 17:55:20 10° S
Cosmos 1697 Rocket 4.3 17:46:23 10° WSW 17:51:28 33° NW 17:56:34 10° NNE
Cosmos 407 Rocket 3.7 17:46:23 10° NNW 17:51:36 52° ENE 17:53:27 36° ESE
Cosmos 304 Rocket 3.8 17:47:05 10° S 17:51:45 54° ESE 17:54:50 21° NE
HJ-1C 3.4 17:49:57 21° S 17:52:00 76° WSW 17:55:16 10° NNW
CSL-04 Rocket 3.7 17:48:19 17° SE 17:52:30 63° ENE 17:58:01 10° N
CENTAUR R/B 3.7 17:47:44 10° WNW 17:54:32 41° N 17:59:02 24° ENE
NOSS 2-3 (D) 3.8 17:52:44 10° SSW 17:56:42 48° SE 17:57:07 46° ESE
DMSP B5D1-3 4.5 17:52:20 10° NNE 17:57:27 61° ESE 18:02:33 10° S
Cosmos 1140 Rocket 3.6 17:53:03 10° NNW 17:58:10 54° ENE 17:59:35 41° ESE
Cosmos 2369 Rocket 4.3 17:55:34 10° NNW 17:58:11 13° N 18:00:44 10° NE
Cosmos 2237 4.4 17:52:54 10° S 17:58:22 48° ESE 18:01:08 27° NE
Meteor 1-4 Rocket 2.3 17:56:02 10° S 17:59:19 75° SE 17:59:19 75° SE
Cosmos 1605 Rocket 3.9 17:54:38 10° S 18:00:56 83° E 18:07:21 10° NNE
NOSS 3-1 (C) 3.2 17:56:27 10° SSW 18:01:46 63° SE 18:04:56 29° ENE
Cosmos 1844 Rocket 2.6 17:56:17 10° NNW 18:01:54 85° WSW 18:05:24 24° SSE
IRS-1C Rocket 4.1 17:57:50 10° SSE 18:03:06 81° WSW 18:08:25 10° NNW
Cosmos 1447 Rocket 4.4 17:59:44 10° N 18:05:55 87° W 18:12:04 10° S
Cosmos 332 Rocket 3.7 18:02:21 10° SSW 18:07:13 73° ESE 18:10:28 21° NNE
CZ-4 R/B 2.3 18:04:22 10° S 18:08:16 48° W 18:12:17 10° NNW
NOSS 2-3 (C) 3.5 18:05:12 10° SSW 18:09:18 62° SE 18:09:38 60° ESE
H-2A R/B 3.9 18:06:10 10° SSW 18:10:12 39° W 18:14:07 10° NNW
Cosmos 1023 Rocket 4.4 18:05:09 10° NNW 18:10:20 67° ENE 18:11:36 49° ESE
X-37B 3.3 18:08:54 10° SW 18:10:16 13° SSW 18:10:16 13° SSW
BREEZE-M DEB (TANK) 4.2 18:09:58 10° W 18:14:28 28° SSW 18:14:54 27° SSW
USA 186 4.5 18:18:14 11° N 18:18:14 11° N 18:18:24 10° N
YAOGAN 1 3.7 18:12:21 10° S 18:16:28 42° W 18:20:37 10° NNW
H-2A R/B 1.8 18:12:56 10° NNE 18:17:04 82° ESE 18:21:14 10° SSW
Cosmos 1153 Rocket 4.4 18:11:34 10° S 18:17:56 74° E 18:24:21 10° NNE
Cosmos 220 Rocket 4.4 18:15:57 10° SSW 18:19:15 48° S 18:19:15 48° S
Cosmos 2278 Rocket 2.9 18:15:37 10° NNW 18:20:51 36° NE 18:21:01 35° NE
IRAS Rocket 4.5 18:19:37 10° NNE 18:25:11 70° WNW 18:30:40 10° SSW
Cosmos 1408 3.3 18:22:09 10° NNW 18:25:40 50° W 18:26:02 48° WSW
Meteor 2-10 Rocket 3.7 18:20:45 10° SSW 18:26:18 77° WNW 18:31:40 10° NNE
SL-16 R/B 2.3 18:24:40 10° SW 18:30:21 74° NW 18:35:10 15° NNE
Cosmos 1190 Rocket 3.8 18:28:20 10° NNW 18:33:35 75° ENE 18:33:43 75° E
OBJECT-B 3.3 18:36:27 16° NNW 18:36:27 16° NNW 18:37:13 10° NNW
Cosmos 371 Rocket 4.2 18:29:54 10° SW 18:34:37 47° NW 18:39:22 10° NNE
ATLAS 5 CENTAUR R/B 2.7 18:31:38 10° W 18:35:33 39° NNW 18:36:43 33° N
SL-8 R/B 4.3 18:31:07 10° WSW 18:35:12 45° SSW 18:35:12 45° SSW
Cosmos 1825 3.3 18:34:15 10° NNW 18:36:44 38° NNW 18:36:44 38° NNW
DMSP B5D2-2 4.4 18:37:41 10° N 18:42:55 65° WNW 18:48:05 10° SSW
Cosmos 2322 Rocket 2.3 18:38:22 10° SW 18:43:58 75° NW 18:47:06 28° NNE
SJ-6B 4.4 18:46:14 28° NNW 18:46:14 28° NNW 18:48:09 10° NNW
Cosmos 1844 4.4 18:41:57 10° NW 18:47:33 51° WSW 18:49:50 33° SSW
USA 215 3.4 18:49:59 48° NE 18:51:46 67° N 18:58:14 10° W
Cosmos 2360 Rocket 2.2 18:49:19 10° SSW 18:54:25 74° SSW 18:54:25 74° SSW
Okean-O 4.2 18:52:50 19° SSW 18:55:22 32° W 18:59:23 10° NNW
Cosmos 2346 Rocket 4.4 18:49:18 10° NNW 18:55:36 84° W 18:56:56 58° S
NOSS 2-3 (E) 4.4 18:55:30 10° WSW 18:58:37 48° W 18:58:37 48° W
Lacrosse 4 Rocket 4.1 18:59:25 10° WNW 19:02:04 16° WSW 19:04:08 12° SW
USA 229 DEB 3.4 18:58:01 10° SW 19:04:29 84° SE 19:04:47 81° E
USA 229 3.4 18:58:08 10° SW 19:04:35 84° SE 19:04:49 82° E
MOS 1 4.3 19:06:11 75° NNW 19:06:11 75° NNW 19:11:26 10° NNW
Resurs 01 Rocket 3.7 19:09:59 21° N 19:09:59 21° N 19:11:28 10° N
SeaSat 1 4.2 19:15:12 24° N 19:15:12 24° N 19:17:41 10° NNW
Ariane Rocket 4.0 19:18:32 42° NNW 19:18:32 42° NNW 19:21:53 10° NNW
Cosmos 1980 Rocket 4.4 19:16:05 10° WNW 19:20:20 21° NNW 19:24:36 10° NNE
Cosmos 2100 Rocket 4.3 19:15:31 10° SSW 19:21:48 67° WNW 19:28:11 10° N
NOSS 3-2 (C) 4.2 19:16:45 10° NW 19:23:32 52° NNE 19:23:44 52° NNE
Cosmos 1459 Rocket 4.1 19:24:22 66° W 19:24:45 68° WNW 19:30:52 10° N
NOSS 3-1 (A) 3.9 19:21:17 10° SW 19:25:17 50° WSW 19:25:17 50° WSW
Cosmos 1943 Rocket 3.8 19:22:26 10° NNW 19:25:42 26° N 19:25:42 26° N
ATLAS 3B R/B 3.8 19:21:25 10° WNW 19:27:39 36° N 19:29:23 31° NNE
Terra 4.5 19:34:55 11° N 19:34:55 11° N 19:35:13 10° N
Cosmos 2173 Rocket 4.5 19:36:02 47° WSW 19:37:22 56° WNW 19:43:36 10° N
Cosmos 2369 Rocket 4.1 19:39:51 10° NNW 19:42:30 20° N 19:42:30 20° N
NOSS 3-2 (A) 4.0 19:38:05 10° NW 19:44:30 70° N 19:44:30 70° N
CENTAUR R/B 3.2 19:38:51 10° NW 19:46:12 68° NNE 19:46:12 68° NNE
NOSS 3-1 (C) 4.2 19:47:20 10° W 19:52:22 47° NW 19:52:22 47° NW
USA 238 DEB 4.2 19:46:51 10° NW 19:52:45 57° N 19:52:45 57° N
USA 238 4.2 19:46:57 10° NW 19:52:50 57° N 19:52:50 57° N
Cosmos 2278 Rocket 3.7 19:59:41 10° NW 20:02:52 34° NW 20:02:52 34° NW
SL-16 R/B 4.3 20:10:57 10° W 20:15:27 23° NNW 20:17:04 21° N
Cosmos 2322 Rocket 4.2 20:24:33 10° W 20:28:57 23° NNW 20:28:57 23° NNW
USA 215 4.4 20:37:20 38° WNW 20:37:20 38° WNW 20:41:07 10° WNW
ATLAS 3B R/B 4.4 21:13:13 10° NW 21:16:37 28° NNW 21:16:37 28° NNW
CENTAUR R/B 4.5 21:29:39 10° NW 21:33:22 30° WNW 21:33:22 30° WNW
